Date,TemperatureHighF,TemperatureAvgF,TemperatureLowF,DewpointHighF,DewpointAvgF,DewpointLowF,HumidityHigh,HumidityAvg,HumidityLow,PressureMaxIn,PressureMinIn,WindSpeedMaxMPH,WindSpeedAvgMPH,GustSpeedMaxMPH,PrecipitationSumIn
2013-3-1,82.6,62.3,48.6,53.1,48.7,45.1,98,66,33,30.30,30.11,14,4,0,0.00
2013-3-2,77.4,61.1,53.8,52.1,47.7,44.9,79,62,38,30.13,29.93,12,4,0,0.00
2013-3-3,69.8,54.0,43.2,48.7,45.7,42.9,99,76,43,29.94,29.86,17,6,0,0.00
2013-3-4,59.2,45.2,39.4,49.4,42.2,37.2,99,90,62,30.00,29.90,14,4,0,0.00
2013-3-5,51.4,42.8,36.7,44.0,39.6,36.4,99,89,69,29.92,29.62,35,7,0,0.33
2013-3-6,52.7,44.6,39.6,44.2,39.0,34.2,98,82,53,29.90,29.63,39,13,0,0.35
2013-3-7,56.7,45.3,36.7,37.7,35.4,32.2,94,70,44,29.85,29.72,7,2,0,0.00
2013-3-8,66.7,48.6,37.9,38.9,35.9,31.4,86,64,33,29.87,29.68,18,7,0,0.00
2013-3-9,78.4,55.5,38.1,42.6,36.3,31.6,88,54,21,30.18,29.87,11,5,0,0.00
2013-3-10,79.2,61.6,48.7,42.1,32.3,23.1,58,35,15,30.20,30.10,15,4,0,0.00
2013-3-11,79.5,60.9,47.7,43.7,38.0,33.7,63,45,24,30.13,29.96,12,4,0,0.00
2013-3-12,86.0,63.8,46.4,53.1,46.6,41.7,88,57,27,30.03,29.94,12,3,0,0.00
2013-3-13,89.1,68.4,54.3,55.3,49.7,46.0,76,54,25,30.04,29.93,10,3,0,0.00
2013-3-14,74.8,62.8,52.5,52.1,45.9,35.0,81,56,29,30.03,29.94,11,4,0,0.00
2013-3-15,82.0,60.8,48.0,49.2,43.4,39.3,73,55,29,30.00,29.89,16,6,0,0.00
2013-3-16,77.4,59.3,48.7,44.6,41.3,35.0,83,55,24,29.98,29.88,13,7,0,0.00
2013-3-17,78.3,55.8,41.2,43.3,39.0,34.8,91,58,23,30.01,29.90,16,6,0,0.00
2013-3-18,73.9,56.6,44.8,47.4,40.4,35.8,74,56,35,29.98,29.89,10,5,0,0.00
2013-3-19,61.7,51.5,43.3,45.5,40.1,31.1,98,67,45,30.00,29.92,12,4,0,0.05
2013-3-20,54.9,48.2,43.7,53.6,47.7,43.4,99,98,93,30.00,29.92,20,6,0,0.52
2013-3-21,70.0,50.9,37.8,44.5,40.1,36.3,99,71,37,30.00,29.89,14,6,0,0.00
2013-3-22,78.3,55.4,39.6,36.8,30.3,16.2,85,44,15,30.00,29.92,9,4,0,0.00
2013-3-23,75.9,57.8,41.7,37.7,32.0,21.9,67,40,17,30.02,29.91,14,4,0,0.00
2013-3-24,78.4,60.1,46.6,46.3,40.0,34.0,71,49,32,29.96,29.83,12,4,0,0.00
2013-3-25,66.4,50.8,41.5,46.2,42.2,39.1,99,75,47,29.87,29.79,19,6,0,0.00
2013-3-26,69.8,52.0,40.1,46.6,42.8,39.8,99,75,42,29.86,29.79,18,7,0,0.00
2013-3-27,58.6,49.9,43.3,50.5,46.1,42.2,99,87,69,29.88,29.80,11,5,0,0.00
2013-3-28,65.3,53.6,45.7,57.0,49.4,45.4,99,86,60,29.97,29.88,7,1,0,0.10
2013-3-29,82.2,63.0,48.9,52.8,48.8,45.7,97,63,34,29.95,29.87,14,5,0,0.00
2013-3-30,74.5,56.3,49.8,53.7,48.8,45.6,99,77,47,29.93,29.84,13,5,0,0.19
2013-3-31,62.6,51.8,48.7,57.4,51.1,48.4,99,98,76,29.93,29.86,11,2,0,0.54